• In Uzbekistan
  • List of Countries
  • For 7 days
  • Water Temperature
  • Satellite Maps
  • Weather Map
  • Weather Widgets
  • user-avatar
    Login

    Hourly Weather Livingstone

    Today, 18 January, Thursday

    Time Temperature Precipitation Wind Pressure Humidity
    00:00 +24°C° 0 mm 1 mps 681 mmHg 72%
    01:00 +24°C° 0 mm 1 mps 681 mmHg 73%
    02:00 +23°C° 0 mm 1 mps 681 mmHg 74%
    03:00 +23°C° 0 mm 1 mps 681 mmHg 75%
    04:00 +23°C° 0 mm 1 mps 681 mmHg 76%
    05:00 +21°C° 0 mm 2 mps 681 mmHg 78%
    06:00 +23°C° 0 mm 2 mps 682 mmHg 73%
    07:00 +25°C° 0 mm 3 mps 682 mmHg 69%
    08:00 +26°C° 0 mm 3 mps 683 mmHg 65%
    09:00 +28°C° 0.1 mm 3 mps 683 mmHg 57%
    10:00 +30°C° 0.1 mm 3 mps 683 mmHg 50%
    11:00 +33°C° 0.1 mm 3 mps 683 mmHg 42%
    12:00 +34°C° 0 mm 3 mps 683 mmHg 39%
    13:00 +35°C° 0 mm 3 mps 682 mmHg 35%
    14:00 +36°C° 0 mm 3 mps 682 mmHg 31%
    15:00 +35°C° 0 mm 2 mps 681 mmHg 32%
    16:00 +35°C° 0 mm 2 mps 680 mmHg 33%
    17:00 +34°C° 0 mm 2 mps 680 mmHg 34%
    18:00 +31°C° 0 mm 2 mps 680 mmHg 41%
    19:00 +29°C° 0 mm 2 mps 680 mmHg 47%
    20:00 +27°C° 0 mm 2 mps 679 mmHg 54%
    21:00 +26°C° 0 mm 2 mps 680 mmHg 59%
    22:00 +25°C° 0 mm 2 mps 680 mmHg 64%
    23:00 +24°C° 0 mm 1 mps 681 mmHg 69%

    Tomorrow, 19 January, Friday

    Time Temperature Precipitation Wind Pressure Humidity
    00:00 +24°C° 0 mm 1 mps 681 mmHg 70%
    01:00 +24°C° 0 mm 1 mps 680 mmHg 70%
    02:00 +23°C° 0 mm 1 mps 680 mmHg 71%
    03:00 +23°C° 0 mm 1 mps 680 mmHg 72%
    04:00 +23°C° 0 mm 2 mps 681 mmHg 74%
    05:00 +21°C° 0 mm 2 mps 681 mmHg 75%
    06:00 +24°C° 0 mm 2 mps 681 mmHg 68%
    07:00 +25°C° 0 mm 3 mps 682 mmHg 61%
    08:00 +27°C° 0 mm 3 mps 682 mmHg 55%
    09:00 +29°C° 0 mm 3 mps 683 mmHg 48%
    10:00 +31°C° 0 mm 3 mps 683 mmHg 41%
    11:00 +34°C° 0 mm 2 mps 683 mmHg 34%
    12:00 +35°C° 0 mm 2 mps 682 mmHg 31%
    13:00 +36°C° 0 mm 2 mps 681 mmHg 28%
    14:00 +37°C° 0 mm 2 mps 681 mmHg 26%
    15:00 +37°C° 0 mm 2 mps 680 mmHg 26%
    16:00 +36°C° 0 mm 2 mps 680 mmHg 27%
    17:00 +36°C° 0 mm 2 mps 679 mmHg 28%
    18:00 +34°C° 0 mm 2 mps 679 mmHg 34%
    19:00 +31°C° 0 mm 2 mps 679 mmHg 40%
    20:00 +29°C° 0 mm 2 mps 680 mmHg 46%
    21:00 +27°C° 0 mm 2 mps 680 mmHg 50%
    22:00 +26°C° 0 mm 2 mps 680 mmHg 54%
    23:00 +25°C° 0 mm 1 mps 680 mmHg 59%

    Day after tomorrow, 20 January, Saturday

    Time Temperature Precipitation Wind Pressure Humidity
    00:00 +25°C° 0 mm 1 mps 680 mmHg 61%
    01:00 +24°C° 0 mm 1 mps 680 mmHg 63%
    02:00 +24°C° 0 mm 1 mps 679 mmHg 65%
    03:00 +24°C° 0 mm 1 mps 679 mmHg 66%
    04:00 +23°C° 0 mm 1 mps 680 mmHg 67%
    05:00 +23°C° 0 mm 1 mps 680 mmHg 68%
    06:00 +24°C° 0 mm 1 mps 680 mmHg 64%
    07:00 +26°C° 0 mm 1 mps 681 mmHg 61%
    08:00 +27°C° 0 mm 1 mps 682 mmHg 58%
    09:00 +29°C° 0 mm 1 mps 682 mmHg 51%
    10:00 +32°C° 0 mm 1 mps 682 mmHg 44%
    11:00 +36°C° 0 mm 2 mps 683 mmHg 37%
    12:00 +35°C° 0 mm 1 mps 682 mmHg 34%
    13:00 +36°C° 0 mm 1 mps 681 mmHg 32%
    14:00 +37°C° 0 mm 1 mps 681 mmHg 29%
    15:00 +36°C° 0 mm 1 mps 680 mmHg 32%
    16:00 +34°C° 0 mm 1 mps 680 mmHg 34%
    17:00 +33°C° 0 mm 1 mps 679 mmHg 37%
    18:00 +31°C° 0 mm 1 mps 679 mmHg 40%
    19:00 +30°C° 0 mm 1 mps 680 mmHg 44%
    20:00 +29°C° 0 mm 1 mps 680 mmHg 47%
    21:00 +28°C° 0 mm 1 mps 680 mmHg 50%
    22:00 +27°C° 0 mm 1 mps 680 mmHg 52%
    23:00 +26°C° 0 mm 1 mps 681 mmHg 55%

    21 January, Sunday

    Time Temperature Precipitation Wind Pressure Humidity
    00:00 +25°C° 0 mm 2 mps 680 mmHg 57%
    01:00 +25°C° 0 mm 2 mps 680 mmHg 60%
    02:00 +24°C° 0 mm 2 mps 679 mmHg 63%
    03:00 +23°C° 0 mm 2 mps 680 mmHg 67%
    04:00 +23°C° 0 mm 2 mps 680 mmHg 71%
    05:00 +21°C° 0 mm 2 mps 680 mmHg 75%
    06:00 +24°C° 0 mm 2 mps 681 mmHg 72%
    07:00 +25°C° 0 mm 2 mps 682 mmHg 69%
    08:00 +26°C° 0 mm 2 mps 682 mmHg 66%
    09:00 +29°C° 0 mm 2 mps 683 mmHg 56%
    10:00 +32°C° 0 mm 2 mps 683 mmHg 46%
    11:00 +36°C° 0 mm 2 mps 683 mmHg 35%
    12:00 +35°C° 0 mm 1 mps 682 mmHg 34%
    13:00 +35°C° 0 mm 1 mps 681 mmHg 32%
    14:00 +35°C° 0 mm 1 mps 680 mmHg 30%
    15:00 +35°C° 0 mm 1 mps 680 mmHg 30%
    16:00 +35°C° 0 mm 1 mps 680 mmHg 30%
    17:00 +35°C° 0 mm 1 mps 679 mmHg 30%
    18:00 +33°C° 0 mm 1 mps 679 mmHg 34%
    19:00 +31°C° 0 mm 1 mps 680 mmHg 38%
    20:00 +29°C° 0 mm 1 mps 680 mmHg 42%
    21:00 +29°C° 0 mm 1 mps 680 mmHg 43%
    22:00 +28°C° 0 mm 1 mps 680 mmHg 45%
    23:00 +27°C° 0 mm 2 mps 681 mmHg 47%

    22 January, Monday

    Time Temperature Precipitation Wind Pressure Humidity
    00:00 +26°C° 0 mm 1 mps 680 mmHg 49%
    01:00 +26°C° 0 mm 1 mps 679 mmHg 51%
    02:00 +25°C° 0 mm 1 mps 679 mmHg 52%
    03:00 +25°C° 0 mm 1 mps 679 mmHg 53%
    04:00 +24°C° 0 mm 1 mps 679 mmHg 54%
    05:00 +24°C° 0 mm 1 mps 680 mmHg 56%
    06:00 +25°C° 0 mm 1 mps 680 mmHg 54%
    07:00 +26°C° 0 mm 1 mps 681 mmHg 52%
    08:00 +27°C° 0 mm 1 mps 682 mmHg 50%
    09:00 +30°C° 0 mm 1 mps 682 mmHg 46%
    10:00 +32°C° 0 mm 1 mps 682 mmHg 41%
    11:00 +35°C° 0 mm 1 mps 683 mmHg 37%
    12:00 +34°C° 0 mm 1 mps 682 mmHg 36%
    13:00 +34°C° 0 mm 1 mps 681 mmHg 36%
    14:00 +34°C° 0 mm 1 mps 680 mmHg 35%
    15:00 +34°C° 0 mm 1 mps 680 mmHg 37%
    16:00 +33°C° 0 mm 1 mps 680 mmHg 39%
    17:00 +33°C° 0 mm 1 mps 679 mmHg 40%
    18:00 +31°C° 0.2 mm 2 mps 679 mmHg 47%
    19:00 +29°C° 0.2 mm 2 mps 679 mmHg 54%
    20:00 +27°C° 0.2 mm 2 mps 679 mmHg 62%
    21:00 +26°C° 0.4 mm 2 mps 679 mmHg 66%
    22:00 +25°C° 0.4 mm 2 mps 680 mmHg 70%
    23:00 +24°C° 0.4 mm 2 mps 680 mmHg 74%

    23 January, Tuesday

    Time Temperature Precipitation Wind Pressure Humidity
    00:00 +24°C° 0.1 mm 2 mps 679 mmHg 75%
    01:00 +24°C° 0.1 mm 1 mps 679 mmHg 76%
    02:00 +23°C° 0.1 mm 1 mps 679 mmHg 76%
    03:00 +23°C° 0 mm 1 mps 679 mmHg 78%
    04:00 +23°C° 0 mm 1 mps 679 mmHg 79%
    05:00 +22°C° 0 mm 1 mps 679 mmHg 80%
    06:00 +24°C° 0.1 mm 1 mps 680 mmHg 76%
    07:00 +25°C° 0.1 mm 1 mps 680 mmHg 71%
    08:00 +26°C° 0.1 mm 1 mps 681 mmHg 66%
    09:00 +30°C° 0.2 mm 1 mps 681 mmHg 56%
    10:00 +33°C° 0.2 mm 1 mps 682 mmHg 46%
    11:00 +36°C° 0.2 mm 1 mps 682 mmHg 36%
    12:00 +36°C° 0 mm 1 mps 681 mmHg 35%
    13:00 +36°C° 0 mm 1 mps 680 mmHg 33%
    14:00 +36°C° 0 mm 1 mps 680 mmHg 32%
    15:00 +35°C° 0 mm 1 mps 679 mmHg 32%
    16:00 +35°C° 0 mm 1 mps 679 mmHg 33%
    17:00 +35°C° 0 mm 1 mps 679 mmHg 33%
    18:00 +33°C° 0 mm 1 mps 679 mmHg 39%
    19:00 +30°C° 0 mm 2 mps 679 mmHg 45%
    20:00 +28°C° 0 mm 2 mps 679 mmHg 51%
    21:00 +27°C° 0 mm 1 mps 679 mmHg 54%
    22:00 +27°C° 0 mm 1 mps 679 mmHg 57%
    23:00 +26°C° 0 mm 1 mps 679 mmHg 61%
    Show more